Regional Weather Roundup
Issued by NWS

Home | Current Version | Previous Version | Graphics & Text | Print | Product List | Glossary On
Versions: 1 2 3 4 5 6 7 8 9 10 11 12 13 14 15 16 17 18 19 20 21 22 23 24 25 26 27 28 29 30 31 32 33 34 35 36 37 38 39 40 41 42 43 44 45 46 47 48 49 50
710
ASUS43 KMKX 121510
RWRWI

WISCONSIN REGIONAL WEATHER ROUNDUP
NATIONAL WEATHER SERVICE MILWAUKEE/SULLIVAN WI
900 AM CST FRI FEB 12 2016

NOTE: "FAIR" INDICATES FEW OR NO CLOUDS BELOW 12,000 FEET WITH NO
SIGNIFICANT WEATHER AND/OR OBSTRUCTIONS TO VISIBILITY.

WIZ001-002-006>008-014>016-023>028-121600-
NORTHWEST WISCONSIN

CITY           SKY/WX    TMP DP  RH WIND       PRES   REMARKS
SUPERIOR ARPT  SUNNY      0 -11  59 N16G25    30.35R WCI -20
ASHLAND        LGT SNOW   2  -5  72 NW14G20   30.26R WCI -16
HAYWARD        PTSUNNY    3 -10  54 N9G18     30.23R WCI -12
SIREN          MOSUNNY    5  -7  58 NW17G26   30.30R WCI -14
CUMBERLAND     MOSUNNY    5  -4  66 NW21G26   30.24R WCI -16
RICE LAKE      SUNNY      6  -4  62 NW15G21   30.26R WCI -11
CHETEK         MOSUNNY    6  -3  63 MISG      30.24S
LADYSMITH      MOSUNNY    6  -4  64 NW17      30.20R WCI -13
EAU CLAIRE     SUNNY      9  -3  58 NW20G25   30.25R WCI -10
MENOMONIE      SUNNY     11   0  60 W12G18    30.27S WCI  -3
NEW RICHMOND   SUNNY      8  -3  60 NW18G28   30.30R WCI -11
OSCEOLA        SUNNY      8  -3  60 NW14G21   30.35R WCI  -9
$$

WIZ003>005-009-010-017-018-121600-
NORTH CENTRAL WISCONSIN

CITY           SKY/WX    TMP DP  RH WIND       PRES   REMARKS
MANITOWISH WTR CLOUDY     2  -5  72 NW16G23   30.07R HAZE    WCI -17
ARBOR VITAE    SUNNY      5  -4  64 NW20      30.06R WCI -15
WOODRUFF       SUNNY      5  -4  64 NW20      30.06R WCI -15
RHINELANDER    CLOUDY     5  -4  66 NW15G25   30.05R WCI -13
EAGLE RIVER    MOSUNNY    5  -5  62 W16G23    30.03R WCI -14
LAND O LAKES   FLURRIES   6  -2  68 NW15G22   30.03R WCI -11
PHILLIPS       PTSUNNY    2  -6  68 NW12G18   30.12R WCI -14
TOMAHAWK       PTSUNNY    4  -5  66 NW13G22   30.10R WCI -13
MEDFORD        SUNNY      4  -4  67 NW20G26   30.12R HAZE    WCI -16
MERRILL        SUNNY      7  -4  60 NW9G18    30.11R WCI  -7
$$

WIZ029-030-035-036-043>047-121600-
CENTRAL WISCONSIN

CITY           SKY/WX    TMP DP  RH WIND       PRES   REMARKS
WAUSAU         SUNNY      8  -3  61 NW17G26   30.11R WCI -10
MOSINEE        MOSUNNY    9   0  66 NW18G24   30.12R WCI -10
MARSHFIELD     SUNNY      8  -4  58 NW21      30.14R WCI -12
STEVENS POINT  SUNNY      9  -3  58 NW15G24   30.13S WCI  -8
WAUPACA        SUNNY     15   1  53 NW14G23   30.14R WCI   1
WAUTOMA        FLURRIES  14   4  64 NW16G22   30.15S WCI  -2
WISC RAPIDS    MOSUNNY   11  -3  53 NW24G31   30.17R WCI  -9
CAMP DOUGLAS   MOSUNNY   14   3  62 NW18G29   30.18R WCI  -3
$$

WIZ011>013-019>022-031-037>040-048>050-121600-
NORTHEAST WISCONSIN

CITY           SKY/WX    TMP DP  RH WIND       PRES   REMARKS
ANTIGO         PTSUNNY    6  -2  69 NW14G23   30.05R WCI -11
SHAWANO        MOSUNNY   14  -1  52 NW13G20   30.11S WCI   0
OCONTO         SUNNY     13   0  55 W12G22    30.08F WCI  -1
STURGEON BAY   SUNNY     12   0  57 W16G24    30.07S WCI  -4
GREEN BAY      SUNNY     13   2  61 NW14      30.10S WCI  -2
MANITOWOC      PTSUNNY   16   3  56 NW20      30.10S WCI  -1
APPLETON       PTSUNNY   12   1  62 W13       30.09S WCI  -3
CLINTONVILLE   MOSUNNY   14   0  52 NW17G24   30.11S WCI  -3
OSHKOSH        MOSUNNY   14   3  61 NW13      30.11S WCI   0
$$

WIZ032>034-041-042-053>061-121600-
SOUTHWEST WISCONSIN

CITY           SKY/WX    TMP DP  RH WIND       PRES   REMARKS
LA CROSSE      PTSUNNY   13   4  67 NW22G28   30.26R WCI  -6
SPARTA         CLOUDY    13   5  71 NW14G20   30.23R WCI  -2
VIROQUA        CLOUDY    13   7  78 NW16      30.18R WCI  -4
BOSCOBEL       CLOUDY    16   8  71 NW8       30.25R WCI   5
PRAIRIE DU CHI MIX PCPN  15   7  69 NW14G22   30.26R WCI   1
PLATTEVILLE    SUNNY     14   9  81 NW15      30.20S WCI  -1
$$

WIZ056-057-062-063-064-067-068-121600-
SOUTH CENTRAL WISCONSIN

CITY           SKY/WX    TMP DP  RH WIND       PRES   REMARKS
REEDSBURG      FLURRIES  14   7  74 NW13      30.18R WCI  -1
BARABOO/DELLS  CLOUDY    14   5  67 NW12G20   30.16S WCI   0
LONE ROCK      CLOUDY    15   7  70 W13       30.22R WCI   1
MINERAL POINT  FLURRIES  16  10  79 NW12      30.17S WCI   3
MADISON        FLURRIES  14   5  67 NW12G18   30.16S WCI   0
MIDDLETON      PTSUNNY   16   8  71 NW15      30.17S WCI   2
WATERTOWN      CLOUDY    15   7  71 NW15G22   30.14S WCI   0
MONROE         SUNNY     18  10  73 NW14      30.16R WCI   4
JANESVILLE     MOSUNNY   18   9  68 NW14      30.16S WCI   4
$$

WIZ051-052-058>065-066-070>072-121600-
SOUTHEAST WISCONSIN

CITY           SKY/WX    TMP DP  RH WIND       PRES   REMARKS
MILWAUKEE      PTSUNNY   17   4  56 NW21      30.13S WCI   0
WAUKESHA       CLOUDY    12   5  73 NW20      30.13S WCI  -6
MILWAUKEE/TIMM PTSUNNY   16   3  57 NW13G24   30.13S WCI   2
RACINE         CLOUDY    17   4  56 NW10G20   30.14R WCI   5
BURLINGTON     CLOUDY    15   6  67 NW15      30.14R WCI  -1
KENOSHA        CLOUDY    17   6  62 NW17G23   30.13R WCI   1
FOND DU LAC    CLOUDY    15   5  64 NW15      30.12S WCI   0
SHEBOYGAN      PTSUNNY   14   5  67 NW13G22   30.10S WCI   0
WEST BEND      CLOUDY    14   5  67 NW15G23   30.11R WCI  -1
JUNEAU         CLOUDY    14   5  68 W10G18    30.14S WCI   1
$$

LSZ147-162-121600-
LAKE SUPERIOR

STATION/POSITION TIME  TEMP    WIND        PRES    WAVE
                       AIR SEA DIR/SP/G            HT/PER
                 (UTC) (F)     (DEG/KT/KT) (MB)    (FT/S)
DEVILS ISLAND    1500    2     330/ 23/ 27 1027.0R
PORT WING        1440    3     330/ 18/ 21 1026.1R
SAXON HARBOR     1500    5                 1023.7R
$$

LMZ867-665-643>646-121600-
LAKE MICHIGAN

STATION/POSITION TIME  TEMP    WIND        PRES    WAVE
                       AIR SEA DIR/SP/G            HT/PER
                 (UTC) (F)     (DEG/KT/KT) (MB)    (FT/S)
CHAMBERS ISLAND  1400   13     240/  8/ 16 1017.6R
ALGOMA LAKESHORE 1411          300/  7/ 16   N/A
KEWAUNEE LAKESHO 1400   13     290/  9/ 15 1017.7R
SHEBOYGAN LAKESH 1500   15     290/ 17/ 20 1021.0S
PORT WASHINGTON  1400   16     300/ 10/ 13 1021.0R
MILWAUKEE LAKESH 1410   17     300/ 11/ 17   N/A
KENOSHA   LAKESH 1500   17     300/ 17/ 20 1020.3R
$$

TC  - TEMPERATURE IN CELSIUS
VSB - VISIBILITY IN STATUTE MILES
WCI - WIND CHILL INDEX
HX  - HEAT INDEX





USA.gov is the U.S. government's official web portal to all federal, state and local government web resources and services.